Location: Avon School (historical)
(37.7514°N, 90.2201°W)
Time: 13:16:54
(UTC+00:00)

Transit 2A Rocket - Pass Details

Date: 16 December 2025
Orbit: 581 x 903 km, 66.7° (Epoch: 13 January)

Event Time Altitude Azimuth Distance (km) Brightness Sun altitude
Rises 00:25:30 0° 312° (NW) 3,488 8.9 -19.5°
Reaches altitude 10° 00:29:17 10° 288° (WNW) 2,500 8.5 -20.3°
Maximum altitude 00:32:08 14° 259° (WSW) 2,180 8.4 -20.8°
Drops below altitude 10° 00:34:54 10° 229° (SW) 2,403 8.4 -21.3°
Sets 00:38:26 0° 204° (SSW) 3,257 8.8 -22.0°
